EN

Hourly Weather Tokarnia

Today, 20 April, Tuesday

Time Temperature Precipitation Wind Pressure Humidity
00:00 +7°C° 0 mm 2 mps 740 mmHg 82%
01:00 +6°C° 0 mm 2 mps 740 mmHg 84%
02:00 +6°C° 0 mm 2 mps 740 mmHg 85%
03:00 +5°C° 0 mm 2 mps 739 mmHg 87%
04:00 +5°C° 0 mm 2 mps 739 mmHg 88%
05:00 +6°C° 0 mm 2 mps 739 mmHg 83%
06:00 +7°C° 0 mm 2 mps 740 mmHg 78%
07:00 +8°C° 0 mm 3 mps 740 mmHg 74%
08:00 +10°C° 0.1 mm 3 mps 739 mmHg 67%
09:00 +11°C° 0.1 mm 3 mps 739 mmHg 60%
10:00 +12°C° 0.1 mm 3 mps 739 mmHg 52%
11:00 +13°C° 0.1 mm 3 mps 739 mmHg 50%
12:00 +14°C° 0.1 mm 2 mps 739 mmHg 47%
13:00 +15°C° 0.1 mm 2 mps 738 mmHg 44%
14:00 +15°C° 0 mm 2 mps 738 mmHg 45%
15:00 +15°C° 0 mm 2 mps 738 mmHg 45%
16:00 +15°C° 0 mm 2 mps 738 mmHg 46%
17:00 +13°C° 0 mm 1 mps 738 mmHg 53%
18:00 +12°C° 0 mm 1 mps 738 mmHg 60%
19:00 +10°C° 0 mm 1 mps 738 mmHg 67%
20:00 +10°C° 0 mm 1 mps 738 mmHg 68%
21:00 +8°C° 0 mm 0 mps 738 mmHg 70%
22:00 +8°C° 0 mm 0 mps 738 mmHg 72%
23:00 +8°C° 0 mm 1 mps 738 mmHg 73%

Tomorrow, 21 April, Wednesday

Time Temperature Precipitation Wind Pressure Humidity
00:00 +8°C° 0 mm 1 mps 738 mmHg 74%
01:00 +8°C° 0 mm 1 mps 738 mmHg 75%
02:00 +7°C° 0 mm 2 mps 738 mmHg 77%
03:00 +7°C° 0 mm 2 mps 738 mmHg 78%
04:00 +6°C° 0 mm 2 mps 737 mmHg 80%
05:00 +7°C° 0 mm 2 mps 738 mmHg 79%
06:00 +8°C° 0 mm 3 mps 738 mmHg 78%
07:00 +8°C° 0 mm 4 mps 738 mmHg 77%
08:00 +11°C° 0.4 mm 4 mps 738 mmHg 72%
09:00 +12°C° 0.4 mm 5 mps 738 mmHg 67%
10:00 +13°C° 0.4 mm 5 mps 738 mmHg 62%
11:00 +13°C° 0.5 mm 5 mps 737 mmHg 61%
12:00 +13°C° 0.5 mm 5 mps 737 mmHg 59%
13:00 +14°C° 0.5 mm 5 mps 737 mmHg 58%
14:00 +14°C° 0.1 mm 4 mps 737 mmHg 55%
15:00 +14°C° 0.1 mm 4 mps 737 mmHg 53%
16:00 +14°C° 0.1 mm 4 mps 737 mmHg 50%
17:00 +13°C° 0 mm 3 mps 737 mmHg 56%
18:00 +11°C° 0 mm 3 mps 737 mmHg 62%
19:00 +10°C° 0 mm 2 mps 737 mmHg 67%
20:00 +9°C° 0 mm 2 mps 737 mmHg 68%
21:00 +9°C° 0 mm 2 mps 737 mmHg 69%
22:00 +8°C° 0 mm 2 mps 737 mmHg 70%
23:00 +8°C° 0 mm 2 mps 737 mmHg 72%

Day after tomorrow, 22 April, Thursday

Time Temperature Precipitation Wind Pressure Humidity
00:00 +7°C° 0 mm 2 mps 737 mmHg 73%
01:00 +7°C° 0 mm 2 mps 737 mmHg 75%
02:00 +6°C° 0 mm 2 mps 738 mmHg 77%
03:00 +6°C° 0 mm 2 mps 738 mmHg 80%
04:00 +5°C° 0 mm 2 mps 738 mmHg 83%
05:00 +5°C° 0 mm 3 mps 738 mmHg 83%
06:00 +5°C° 0 mm 3 mps 738 mmHg 84%
07:00 +6°C° 0 mm 4 mps 739 mmHg 85%
08:00 +5°C° 0.3 mm 4 mps 739 mmHg 86%
09:00 +4°C° 0.3 mm 4 mps 740 mmHg 88%
10:00 +3°C° 0.3 mm 4 mps 740 mmHg 89%
11:00 +3°C° 0.1 mm 5 mps 740 mmHg 76%
12:00 +5°C° 0.1 mm 5 mps 740 mmHg 64%
13:00 +7°C° 0.1 mm 5 mps 740 mmHg 51%
14:00 +7°C° 0 mm 5 mps 740 mmHg 49%
15:00 +8°C° 0 mm 5 mps 740 mmHg 47%
16:00 +8°C° 0 mm 5 mps 739 mmHg 44%
17:00 +7°C° 0 mm 4 mps 740 mmHg 50%
18:00 +5°C° 0 mm 3 mps 740 mmHg 56%
19:00 +4°C° 0 mm 3 mps 740 mmHg 62%
20:00 +3°C° 0 mm 3 mps 740 mmHg 66%
21:00 +3°C° 0 mm 2 mps 741 mmHg 70%
22:00 +3°C° 0 mm 2 mps 741 mmHg 74%
23:00 +1°C° 0 mm 3 mps 741 mmHg 77%

23 April, Friday

Time Temperature Precipitation Wind Pressure Humidity
00:00 +1°C° 0 mm 3 mps 741 mmHg 80%
01:00 +1°C° 0 mm 3 mps 741 mmHg 83%
02:00 0°C° 0 mm 3 mps 741 mmHg 87%
03:00 0°C° 0 mm 3 mps 741 mmHg 90%
04:00 0°C° 0 mm 3 mps 742 mmHg 93%
05:00 0°C° 0 mm 4 mps 742 mmHg 83%
06:00 +1°C° 0 mm 5 mps 742 mmHg 73%
07:00 +2°C° 0 mm 5 mps 743 mmHg 64%
08:00 +5°C° 0 mm 5 mps 743 mmHg 57%
09:00 +6°C° 0 mm 5 mps 743 mmHg 50%
10:00 +7°C° 0 mm 5 mps 743 mmHg 44%
11:00 +7°C° 0 mm 6 mps 743 mmHg 43%
12:00 +7°C° 0 mm 6 mps 743 mmHg 42%
13:00 +8°C° 0 mm 6 mps 742 mmHg 41%
14:00 +7°C° 0.3 mm 6 mps 743 mmHg 50%
15:00 +5°C° 0.3 mm 6 mps 743 mmHg 60%
16:00 +4°C° 0.3 mm 6 mps 743 mmHg 69%
17:00 +3°C° 0.2 mm 5 mps 743 mmHg 74%
18:00 +2°C° 0.2 mm 5 mps 744 mmHg 79%
19:00 +1°C° 0.2 mm 4 mps 744 mmHg 83%
20:00 +1°C° 0 mm 4 mps 745 mmHg 84%
21:00 0°C° 0 mm 4 mps 745 mmHg 85%
22:00 0°C° 0 mm 4 mps 745 mmHg 86%
23:00 -1°C° 0 mm 4 mps 745 mmHg 86%

24 April, Saturday

Time Temperature Precipitation Wind Pressure Humidity
00:00 0°C° 0 mm 3 mps 745 mmHg 85%
01:00 0°C° 0 mm 3 mps 745 mmHg 85%
02:00 -1°C° 0 mm 3 mps 745 mmHg 85%
03:00 -1°C° 0 mm 3 mps 745 mmHg 85%
04:00 -1°C° 0 mm 3 mps 745 mmHg 84%
05:00 -1°C° 0 mm 4 mps 745 mmHg 79%
06:00 0°C° 0 mm 5 mps 745 mmHg 73%
07:00 +2°C° 0 mm 6 mps 745 mmHg 68%
08:00 +3°C° 0 mm 5 mps 745 mmHg 59%
09:00 +5°C° 0 mm 5 mps 745 mmHg 50%
10:00 +7°C° 0 mm 5 mps 745 mmHg 41%
11:00 +7°C° 0 mm 5 mps 745 mmHg 40%
12:00 +8°C° 0 mm 5 mps 745 mmHg 38%
13:00 +8°C° 0 mm 5 mps 744 mmHg 37%
14:00 +8°C° 0 mm 5 mps 744 mmHg 44%
15:00 +8°C° 0 mm 5 mps 743 mmHg 52%
16:00 +7°C° 0 mm 5 mps 743 mmHg 60%
17:00 +6°C° 0.2 mm 5 mps 743 mmHg 67%
18:00 +5°C° 0.2 mm 4 mps 743 mmHg 75%
19:00 +4°C° 0.2 mm 3 mps 743 mmHg 83%
20:00 +3°C° 0 mm 3 mps 743 mmHg 85%
21:00 +2°C° 0 mm 3 mps 743 mmHg 87%
22:00 +1°C° 0 mm 4 mps 743 mmHg 89%
23:00 +2°C° 0 mm 3 mps 743 mmHg 89%

25 April, Sunday

Time Temperature Precipitation Wind Pressure Humidity
00:00 +1°C° 0 mm 3 mps 744 mmHg 88%
01:00 +1°C° 0 mm 3 mps 744 mmHg 88%
02:00 0°C° 0 mm 3 mps 744 mmHg 90%
03:00 -1°C° 0 mm 2 mps 744 mmHg 92%
04:00 -2°C° 0 mm 2 mps 743 mmHg 95%
05:00 0°C° 0 mm 3 mps 744 mmHg 85%
06:00 +1°C° 0 mm 3 mps 744 mmHg 76%
07:00 +1°C° 0 mm 4 mps 744 mmHg 67%
08:00 +3°C° 0 mm 4 mps 744 mmHg 59%
09:00 +4°C° 0 mm 4 mps 744 mmHg 51%
10:00 +6°C° 0 mm 5 mps 744 mmHg 43%
11:00 +6°C° 0 mm 5 mps 744 mmHg 43%
12:00 +6°C° 0 mm 5 mps 744 mmHg 43%
13:00 +7°C° 0 mm 4 mps 744 mmHg 43%
14:00 +6°C° 0.1 mm 5 mps 743 mmHg 44%
15:00 +6°C° 0.1 mm 5 mps 743 mmHg 46%
16:00 +6°C° 0.1 mm 5 mps 743 mmHg 47%
17:00 +5°C° 0.2 mm 4 mps 743 mmHg 56%
18:00 +4°C° 0.2 mm 4 mps 743 mmHg 65%
19:00 +1°C° 0.2 mm 4 mps 743 mmHg 74%
20:00 +2°C° 0.1 mm 3 mps 743 mmHg 76%
21:00 +1°C° 0.1 mm 3 mps 743 mmHg 79%
22:00 +1°C° 0.1 mm 3 mps 743 mmHg 82%
23:00 0°C° 0.1 mm 3 mps 743 mmHg 83%
Show more

We Need Your Consent

Meteoprog and our Service Providers may store and access personal data such as cookies, device identifiers or other similar technologies on your device and process such data to personalise content and ads, as well as provide social media features and to analyse the traffic.

  • Store and/or access information on your device

    Cookies, device identifiers or other information can be stored or accessed on your device for the purposes indicated above.

  • Personalised ads and content, ad and content measurement, audience insights, and products development

    Ads and content can be personalised based on a profile. More data can be added to better personalise ads and content. Ad and content performance can be measured. Insights about the audience who saw the ads and content can be derived. Such data can be used to develop or improve user’s experience, systems and software.

By clicking ‘I Agree’ you will allow the use of indicated cookies, device identifiers, web beacons or other similar technologies. Your settings can be changed in the browser on your device.

For certain purposes, legitimate interests may be relied on, rather than consent. You can read more about this in our Privacy and Cookie Policy.